Location: *
(46.4000°N, 12.6667°E)
Time: 03:55:48
(UTC+00:00)

CZ-4C R/B - Pass Details

Date: 22 August 2020
Orbit: 629 x 1373 km, 63.4° (Epoch: 22 September)

Event Time Altitude Azimuth Distance (km) Brightness Sun altitude
Rises 03:09:02 0° 169° (S) 3,000 4.9 -11.5°
Reaches altitude 10° 03:11:52 10° 150° (SSE) 2,169 4.4 -11.1°
Maximum altitude 03:15:09 18° 108° (ESE) 1,791 4.5 -10.6°
Drops below altitude 10° 03:18:47 10° 66° (ENE) 2,432 6.2 -10.1°
Sets 03:22:11 0° 49° (NE) 3,521 7.3 -9.5°
